カタログに戻る

KUIPER-00188

運用中通信LEO
NORAD 67142·PAYLOAD·🇺🇸 United States

打ち上げ Dec 15, 2025 から Cape Canaveral Space Force Station

Loading…

次のパス (今後24時間)

TLE

最新Source: CelesTrak SupGP

元期: Sep 14, 2026, 18:38 UTC

1 67142C 25301K   26257.77680556  .00000228  00000+0  29860-4 0  2574
2 67142  51.9016 292.1210 0000443  61.3098 200.7544 14.79917749    10

AllMySatでKUIPER-00188をリアルタイム追跡

Download on the App Store